Location: Wiler
(46.4041°N, 7.7840°E)
Time: 05:18:59
(UTC+00:00)

STARLINK-1200 - Pass Details

Date: 09 April 2020
Orbit: 549 x 550 km, 53.0° (Epoch: 01 June)

Event Time Altitude Azimuth Distance (km) Brightness Sun altitude
Rises 19:29:38 0° 299° (WNW) 2,789 9.3 -13.8°
Reaches altitude 10° 19:31:56 10° 303° (WNW) 1,890 7.8 -14.2°
Maximum altitude 19:36:11 58° 23° (NNE) 675 4.0 -14.8°
Enters shadow 19:38:33 25° 95° (E) 1,192 4.8 -15.2°
